Location: Waco, TX
(31.5480°N, 97.1670°W)
Time: 23:07:17
(UTC-06:00)

ISS - Pass Details

Date: 16 November 2018
Orbit: 402 x 408 km, 51.6° (Epoch: 16 November)

Event Time Altitude Azimuth Distance (km) Brightness Sun altitude
Rises 04:43:05 0° 325° (NW) 2,317 - -28.6°
Reaches altitude 10° 04:45:21 10° 338° (NNW) 1,457 - -28.1°
Maximum altitude 04:48:13 28° 39° (NE) 792 - -27.5°
Exits shadow 04:49:33 21° 80° (E) 972 -1.2 -27.2°
Drops below altitude 10° 04:51:05 10° 101° (E) 1,454 0.0 -26.9°
Sets 04:53:20 0° 113° (ESE) 2,312 1.2 -26.4°
